Regional Weather Roundup
Issued by NWS Green Bay, WI

Home | Current Version | Previous Version | Graphics & Text | Print | Product List | Glossary Off
Versions: 1 2 3 4 5 6 7 8 9 10 11 12 13 14 15 16 17 18 19 20 21 22 23 24 25 26 27 28 29 30 31 32 33 34 35 36 37 38 39 40 41 42 43 44 45 46 47 48 49 50

000
ASUS43 KGRB 290912
RWRGRB

NORTH-CENTRAL AND NORTHEAST WISCONSIN REGIONAL WEATHER ROUNDUP
NATIONAL WEATHER SERVICE GREEN BAY WI
400 AM CDT SAT AUG 29 2015

WIZ005-009-010>012-018-019-291000-
NORTH CENTRAL WISCONSIN

CITY           SKY/WX    TMP DP  RH WIND       PRES   REMARKS
IRONWOOD       CLOUDY    57  55  94 SW5       30.06F
MANITOWISH WTR MOCLDY    56  55  94 CALM      30.10F
ARBOR VITAE    MOCLDY    57  55  95 N3        30.11R
EAGLE RIVER    CLOUDY    56  55  95 CALM      30.11R
LAND O LAKES   DRIZZLE   58  53  83 SW3       30.10F
RHINELANDER    PTCLDY    52  51  97 CALM      30.10R
PHILLIPS       PTCLDY    52  52 100 NE5       30.08S
ANTIGO         CLEAR     53  52  97 S3        30.08S
TOMAHAWK         N/A     50  49  97 CALM      30.09S FOG
MERRILL        CLEAR     52  52 100 CALM      30.08R
$$

WIZ013-073-291000-
NORTHEAST WISCONSIN

CITY           SKY/WX    TMP DP  RH WIND       PRES   REMARKS
IRON MOUNTAIN  CLOUDY    61  56  83 CALM      30.09R
MARINETTE      MOCLDY    57  52  82 SW3       30.09R
OCONTO         CLOUDY    57  57 100 CALM      30.08S
$$

WIZ017-030-035>037-045-291000-
CENTRAL WISCONSIN

CITY           SKY/WX    TMP DP  RH WIND       PRES   REMARKS
MEDFORD        MOCLDY    50  50  99 NE5       30.07R FOG
WAUSAU         CLOUDY    57  54  89 SE7       30.05S
MOSINEE        CLOUDY    54  54 100 SE6       30.07S
MARSHFIELD     CLOUDY    57  53  86 SE9       30.05S
WISC RAPIDS    CLOUDY    59  56  89 E3        30.06F
STEVENS POINT  DRIZZLE   56  55  99 E3        30.06F
WAUPACA        CLOUDY    59  58  97 E6        30.07F FOG
SHAWANO        CLOUDY    59  56  90 CALM      30.08F
CLINTONVILLE   DRIZZLE   55  55 100 CALM      30.08S
WAUTOMA        LGT RAIN  57  57 100 CALM      30.06F FOG
$$

WIZ038-039-048-051-291000-
FOX VALLEY

CITY           SKY/WX    TMP DP  RH WIND       PRES   REMARKS
NWS GREEN BAY  LGT RAIN  58  57  97 CALM      30.09F FOG
APPLETON       RAIN      57  57 100 NE3       30.07S
OSHKOSH        LGT RAIN  59  57  93 E5        30.06F FOG
FOND DU LAC    LGT RAIN  58  57  97 SE5       30.07S FOG
$$

WIZ022-050-052-291000-
EAST CENTRAL WISCONSIN

CITY           SKY/WX    TMP DP  RH WIND       PRES   REMARKS
EPHRAIM        CLOUDY    58  56  91 CALM      30.09R
STURGEON BAY   CLOUDY    57  55  94 S6        30.11F
MANITOWOC      LGT RAIN  57  57 100 MISG      30.10F FOG
SHEBOYGAN      HVY RAIN  57  56  96 NE8       30.08F FOG
$$

LMZ563-521-522-541>543-291000-
LAKESHORE

STATION/POSITION TIME  TEMP    WIND        PRES    VSBY  WAVE
                       AIR SEA DIR/SP/G                  HT/PER
                 (UTC) (F)     (DEG/KT/KT) (MB)    (MI)  (FT/S)
SHEBOYGAN LKSHOR 0900   53      20/ 11/ 11 1019.1F
ALGOMA MARINA    0814             CALM       N/A
NORTHPORT PIER   0800   61     200/  2/ 19 1018.6F
N MID LAKE BUOY  0850   63 64  240/ 16/ 19 1018.8R         3/ 4
S GREEN BAY BUOY 0900   60 62  180/ 10/ 12 1020.0F
SISTER BAY LKSHO 0819   61     220/ 13/ 16   N/A
CHAMBERS ISLAND  0800   60     190/  7/ 11 1018.6F
$$



USA.gov is the U.S. government's official web portal to all federal, state and local government web resources and services.